Orbital Elements at Epoch 2459200.5 (2020-Dec-17.0) TDB
Reference: JPL 23 (heliocentric ecliptic J2000)
Element | Value | Uncertainty (1-sigma) | Units |
e | .1151679651829598 | 5.6334e-08 | |
a | 2.659503324489523 | 1.6411e-08 | au |
q | 2.353213738210748 | 1.5629e-07 | au |
i | 14.95818235666616 | 4.908e-06 | deg |
node | 81.10836651560079 | 1.9575e-05 | deg |
peri | 313.3811806301258 | 2.6687e-05 | deg |
M | 339.6402639096891 | 1.9141e-05 | deg |
tp | 2459290.091926768128 (2021-Mar-16.59192677) | 8.452e-05 | TDB |
period | 1584.160693117987 4.34 | 1.4663e-05 4.015e-08 | d yr |
n | .2272496733216114 | 2.1035e-09 | deg/d |
Q | 2.965792910768299 | 1.8301e-08 | au |
|
| | Orbit Determination Parameters
Additional Information
|